Regional Weather Roundup
Issued by NWS

Home | Current Version | Previous Version | Graphics & Text | Print | Product List | Glossary Off
Versions: 1 2 3 4 5 6 7 8 9 10 11 12 13 14 15 16 17 18 19 20 21 22 23 24 25 26 27 28 29 30 31 32 33 34 35 36 37 38 39 40 41 42 43 44 45 46 47 48 49 50

000
ASUS43 KMKX 232310
RWRWI

WISCONSIN REGIONAL WEATHER ROUNDUP
NATIONAL WEATHER SERVICE MILWAUKEE/SULLIVAN WI
500 PM CST TUE JAN 23 2018

NOTE: "FAIR" INDICATES FEW OR NO CLOUDS BELOW 12,000 FEET WITH NO
SIGNIFICANT WEATHER AND/OR OBSTRUCTIONS TO VISIBILITY.

WIZ001-002-006>008-014>016-023>028-240000-
NORTHWEST WISCONSIN

CITY           SKY/WX    TMP DP  RH WIND       PRES   REMARKS
SUPERIOR ARPT  FAIR      22   8  54 CALM      30.12R
ASHLAND        CLOUDY    22  16  78 NW3       30.11R
HAYWARD        CLOUDY    21  13  71 NW6       30.09R WCI  13
SIREN          FAIR      20   9  61 CALM      30.11R
CUMBERLAND     CLOUDY    16  10  79 NW8       30.10R WCI   5
RICE LAKE      CLOUDY    19  13  79 CALM      30.12R
CHETEK         CLOUDY    18  14  83 W5        30.10R WCI  11
LADYSMITH      CLOUDY    22  16  78 NW3       30.08R
EAU CLAIRE     CLOUDY    19  13  77 NW3       30.11R
MENOMONIE      FAIR      19  13  76 N5        30.12R WCI  12
NEW RICHMOND   FAIR      16   8  71 CALM      30.12R
OSCEOLA        FAIR      21  10  63 CALM      30.15R
$$

WIZ003>005-009-010-017-018-240000-
NORTH CENTRAL WISCONSIN

CITY           SKY/WX    TMP DP  RH WIND       PRES   REMARKS
MANITOWISH WTR FLURRIES  19  17  92 N6        30.02R WCI  10
ARBOR VITAE    FLURRIES  22  18  85 N10       30.01R WCI  11
WOODRUFF       FLURRIES  22  18  85 N10       30.01R WCI  11
RHINELANDER    CLOUDY    20  16  84 N7        30.01R WCI  11
EAGLE RIVER    CLOUDY    19  16  91 N7        29.99R WCI   9
LAND O LAKES   FLURRIES  17  13  86 NW9       30.02R WCI   5
PHILLIPS       CLOUDY    19  16  87 N5        30.03R WCI  12
TOMAHAWK       FLURRIES  20  16  85 NW7       30.03R WCI  11
MEDFORD        CLOUDY    21  16  83 NW7       30.03R WCI  12
MERRILL        CLOUDY    22  17  81 N8        30.02R WCI  13
$$

WIZ029-030-035-036-043>047-240000-
CENTRAL WISCONSIN

CITY           SKY/WX    TMP DP  RH WIND       PRES   REMARKS
WAUSAU         CLOUDY    23  17  78 NW9       30.01R WCI  13
MOSINEE        CLOUDY    23  19  86 NW9       30.03R WCI  13
MARSHFIELD     CLOUDY    22  17  81 NW9       30.03R WCI  12
STEVENS POINT  CLOUDY    23  19  83 NW6       30.03R WCI  16
WAUPACA        CLOUDY    29  20  68 NW7       30.03R WCI  22
WAUTOMA        CLOUDY    26  19  74 W10       30.05R WCI  16
WISC RAPIDS    CLOUDY    24  16  71 NW7       30.06R WCI  16
CAMP DOUGLAS   NOT AVBL
$$

WIZ011>013-019>022-031-037>040-048>050-240000-
NORTHEAST WISCONSIN

CITY           SKY/WX    TMP DP  RH WIND       PRES   REMARKS
ANTIGO         CLOUDY    19  15  84 N8        30.00R WCI   9
SHAWANO        FAIR      28  19  71 N6        30.01R WCI  21
OCONTO         FAIR      25  18  75 NW7       30.02R WCI  17
STURGEON BAY   CLOUDY    24  18  77 N17       30.00R WCI  11
GREEN BAY      MOCLDY    27  21  78 NW5       30.02R WCI  22
MANITOWOC      CLOUDY    27  20  75 NW13      30.01R WCI  16
APPLETON       CLOUDY    27  18  69 NW10      29.99R WCI  17
CLINTONVILLE   FAIR      27  19  74 N6        30.02R WCI  20
OSHKOSH        CLOUDY    28  20  71 NW8       30.02R WCI  20
$$

WIZ032>034-041-042-053>061-240000-
SOUTHWEST WISCONSIN

CITY           SKY/WX    TMP DP  RH WIND       PRES   REMARKS
LA CROSSE      CLOUDY    25  18  74 N9        30.12R WCI  15
SPARTA         CLOUDY    23  20  89 NW10      30.11R WCI  12
VIROQUA        CLOUDY    22  20  95 NW9       30.06R WCI  11
BOSCOBEL       CLOUDY    26  19  74 NW8       30.11R WCI  18
PRAIRIE DU CHI CLOUDY    25  18  76 NW8       30.12R WCI  16
PLATTEVILLE    CLOUDY    25  24  94 W10       30.07R WCI  15
$$

WIZ056-057-062-063-064-067-068-240000-
SOUTH CENTRAL WISCONSIN

CITY           SKY/WX    TMP DP  RH WIND       PRES   REMARKS
REEDSBURG      CLOUDY    25  22  87 NW6       30.07R WCI  18
BARABOO/DELLS  CLOUDY    25  21  87 NW8       30.06R WCI  16
LONE ROCK      CLOUDY    27  22  81 W10       30.09R WCI  17
MINERAL POINT  CLOUDY    28  27  93 NW7       30.05R WCI  21
MADISON        CLOUDY    26  21  81 NW6       30.06R WCI  19
MIDDLETON      CLOUDY    28  23  84 NW9       30.06R WCI  19
WATERTOWN      CLOUDY    26  24  90 NW7       30.04R WCI  19
MONROE         CLOUDY    28  23  80 NW8       30.05R WCI  20
JANESVILLE     CLOUDY    28  28 100 NW10      30.05R WCI  19
$$

WIZ051-052-058>065-066-070>072-240000-
SOUTHEAST WISCONSIN

CITY           SKY/WX    TMP DP  RH WIND       PRES   REMARKS
MILWAUKEE      CLOUDY    30  23  75 NW9       30.01R WCI  22
WAUKESHA       CLOUDY    27  21  80 NW10      30.02R WCI  17
MILWAUKEE/TIMM CLOUDY    28  19  69 NW9       30.02R WCI  20
RACINE         CLOUDY    29  24  82 NW7       30.03R WCI  22
BURLINGTON     CLOUDY    27  22  82 NW9       30.04R WCI  18
KENOSHA        CLOUDY    29  22  75 NW9       30.02R WCI  20
FOND DU LAC    CLOUDY    28  20  71 NW7       30.02R WCI  21
SHEBOYGAN      CLOUDY    28  22  78 NW10      30.01R WCI  19
WEST BEND      CLOUDY    28  23  80 NW7       30.01R WCI  21
JUNEAU         CLOUDY    26  21  80 NW6       30.04R WCI  20
$$

LSZ147-162-240000-
LAKE SUPERIOR

STATION/POSITION TIME  TEMP    WIND        PRES    WAVE
                       AIR SEA DIR/SP/G            HT/PER
                 (UTC) (F)     (DEG/KT/KT) (MB)    (FT/S)
DEVILS ISLAND    2300   24        CALM     1020.7R
SAXON HARBOR     2230   23      40/  9/ 12 1019.0R
$$

LMZ867-665-643>646-240000-
LAKE MICHIGAN

STATION/POSITION TIME  TEMP    WIND        PRES    WAVE
                       AIR SEA DIR/SP/G            HT/PER
                 (UTC) (F)     (DEG/KT/KT) (MB)    (FT/S)
NORTHPORT PIER   2240   23     320/  9/ 14 1015.6R
KEWAUNEE LAKESHO 2248                      1015.0R
SHEBOYGAN LAKESH 2300   29     320/ 12/ 14 1017.1R
PORT WASHINGTON  2240   29     330/  5/  9 1017.3R
MILWAUKEE LAKESH 2250   29     320/  8/  9   N/A
KENOSHA   LAKESH 2300   28     310/  6/ 11 1016.9
$$

TC  - TEMPERATURE IN CELSIUS
VSB - VISIBILITY IN STATUTE MILES
WCI - WIND CHILL INDEX
HX  - HEAT INDEX





USA.gov is the U.S. government's official web portal to all federal, state and local government web resources and services.